This is the latest recevied weather packets stored in our database for station/object SQ6RR-11. If no packets are shown the sender has not sent any weather packets the latest 1 day(s).
| Time | Temp. | Humidity | Pressure | Rain* | Wind** | Luminosity | Snow |
|---|---|---|---|---|---|---|---|
| 1778013771 | 15° C | 77% | 1008 hPa | 0 mm | 0 m/s | - | - |
| 1778013502 | 15.56° C | 77% | 1008 hPa | 0 mm | 0 m/s | - | - |
| 1778013217 | 15.56° C | 76% | 1008 hPa | 0 mm | 0 m/s | - | - |
| 1778012957 | 15.56° C | 76% | 1008 hPa | 0 mm | 0 m/s | - | - |
| 1778012693 | 15.56° C | 75% | 1008 hPa | 0 mm | 0 m/s | - | - |
| 1778012426 | 15.56° C | 75% | 1008 hPa | 0 mm | 0 m/s | - | - |
| 1778012167 | 15.56° C | 74% | 1008 hPa | 0 mm | 0 m/s | - | - |
| 1778011911 | 15.56° C | 74% | 1007.9 hPa | 0 mm | 0 m/s | - | - |
| 1778011662 | 15.56° C | 73% | 1007.9 hPa | 0 mm | 0 m/s | - | - |
| 1778011380 | 16.11° C | 73% | 1007.9 hPa | 0 mm | 0 m/s | - | - |
| 1778011126 | 16.11° C | 72% | 1007.9 hPa | 0 mm | 0 m/s | - | - |
| 1778010857 | 16.11° C | 72% | 1007.9 hPa | 0 mm | 0 m/s | - | - |
| 1778010604 | 16.11° C | 72% | 1007.9 hPa | 0 mm | 0 m/s | - | - |
| 1778010337 | 16.11° C | 72% | 1008 hPa | 0 mm | 0 m/s | - | - |
| 1778010071 | 16.11° C | 71% | 1007.8 hPa | 0 mm | 0 m/s | - | - |
| 1778009822 | 16.11° C | 71% | 1007.8 hPa | 0 mm | 0 m/s | - | - |
| 1778009537 | 15.56° C | 70% | 1007.7 hPa | 0 mm | 0 m/s | - | - |
| 1778009277 | 16.11° C | 70% | 1007.7 hPa | 0 mm | 0 m/s | - | - |
| 1778009027 | 16.11° C | 69% | 1007.8 hPa | 0 mm | 0 m/s | - | - |
| 1778008745 | 16.67° C | 69% | 1007.8 hPa | 0 mm | 0 m/s | - | - |
| 1778008462 | 16.67° C | 69% | 1007.8 hPa | 0 mm | 0 m/s | - | - |
| 1778008182 | 16.67° C | 69% | 1007.8 hPa | 0 mm | 0 m/s | - | - |
| 1778007912 | 16.67° C | 69% | 1007.9 hPa | 0 mm | 0 m/s | - | - |
| 1778007647 | 16.67° C | 69% | 1007.8 hPa | 0 mm | 0 m/s | - | - |
| 1778007386 | 16.11° C | 68% | 1007.8 hPa | 0 mm | 0 m/s | - | - |
* Rain latest hour (hover to see other rain measurements)
** Current wind speed in m/s (hover to see current wind gust speed)